Weather observations for the past three days for
La Porte Municipal Airport
Metric (Imperial)
Date Time (cdt) Wind (kph) Vis. (km) Weather Sky Cond. Temperature (ºC) Relative Humidity Wind Chill (°C) Heat Index (°C) Pressure Precipitation (cm)
Air Dwpt 6 hour altimeter (cm) sea level (mb) 1 hr 3 hr 6 hr
Max. Min.
10 09:35 Vrbl 7 16.09 Fair CLR 13 -2 36% 76.4 0.0
10 09:15 N 7 16.09 Fair CLR 13 -1 38% 76.38 0.0
10 08:55 NE 13 16.09 Light Rain CLR 12 -2 38% 76.38 0.0
10 08:35 E 9 16.09 Fair CLR 12 -1 41% 76.35 0.0
10 08:15 NE 11 16.09 Fair CLR 11 -1 44% 76.35 0.0
10 07:55 E 13 16.09 Fair CLR 10 0 50% 8 76.33 0.0
10 07:35 NE 11 16.09 Fair CLR 10 0 50% 9 76.3 0.0
10 07:15 E 13 16.09 Fair CLR 9 1 58% 7 76.3 0.0
10 06:55 NE 13 16.09 Fair CLR 8 2 8.1 4.9 66% 6 76.28 0.0
10 06:35 NE 9 16.09 Fair CLR 7 3 76% 5 76.25 0.0
10 06:15 NE 11 16.09 Fair CLR 6 4 87% 4 76.23 0.0
10 05:55 NE 9 16.09 Fair CLR 5 3 87% 3 76.2 0.0
10 05:35 NE 7 16.09 Fair CLR 6 3 81% 5 76.17 0.0
10 05:15 NE 11 16.09 Fair CLR 6 5 93% 4 76.15 0.0
10 04:55 NE 11 16.09 Fair CLR 7 6 93% 5 76.15 0.0
10 04:35 NE 13 16.09 Fair CLR 7 6 93% 5 76.12 0.0
10 04:15 NE 13 16.09 Fair CLR 7 6 93% 5 76.1 0.0
10 03:55 N 13 16.09 Fair CLR 7 7 100% 5 76.07 0.0
10 03:35 N 15 16.09 Fair CLR 7 7 100% 5 76.07 0.0
10 03:15 N 11 16.09 Fair CLR 7 7 100% 5 76.05 0.0
10 02:55 N 13 16.09 Fair CLR 7 6 93% 5 76.02 0.0
10 02:35 N 15 16.09 Fair CLR 8 7 93% 6 76 0.0
10 02:15 NW 17 16.09 Fair CLR 7 6 93% 4 75.97 0.0
10 01:55 NW 9 16.09 Fair CLR 6 6 100% 4 75.97 0.0
10 01:35 W 2 16.09 Fair CLR 6 6 100% 75.95 0.0
10 01:15 W 6 16.09 Fair CLR 7 7 100% 75.95 0.0
10 00:55 W 4 16.09 A Few Clouds FEW060 6 6 17.1 5.8 100% 75.92 0.0
10 00:35 NW 6 16.09 Partly Cloudy SCT060 6 6 100% 75.9 0.0
10 00:15 NW 4 16.09 A Few Clouds FEW060 7 7 100% 75.87 0.0
09 23:55 SW 4 16.09 A Few Clouds FEW060 7 7 100% 75.87 0.0
09 23:35 SW 4 16.09 Fair CLR 8 5 82% 75.84 0.0
09 23:15 NE 4 16.09 Fair CLR 8 4 76% 75.82 0.0
09 22:55 NE 4 16.09 Fair CLR 9 4 71% 75.82 0.0
09 22:35 N 9 16.09 A Few Clouds FEW080 11 2 54% 75.79 0.0
09 22:15 N 13 16.09 A Few Clouds FEW080 11 3 58% 75.79 0.0
09 21:55 N 13 16.09 Fair CLR 11 3 58% 75.77 0.0
09 21:35 N 11 16.09 Fair CLR 13 2 47% 75.74 0.0
09 21:15 NE 11 16.09 A Few Clouds FEW080 12 3 54% 75.72 0.0
09 20:55 NE 9 16.09 A Few Clouds FEW090 13 3 51% 75.69 0.0
09 20:35 N 13 16.09 Partly Cloudy SCT090 14 3 48% 75.64 0.0
09 20:15 N 19 16.09 Partly Cloudy SCT090 14 3 48% 75.62 0.0
09 19:55 N 20 G 31 16.09 Partly Cloudy SCT090 15 2 42% 75.57 0.0
09 19:35 N 22 16.09 Partly Cloudy SCT090 16 3 42% 75.54 0.0
09 19:15 N 22 G 37 16.09 Mostly Cloudy BKN090 17 3 39% 75.51 0.0
09 18:55 N 20 G 44 16.09 Mostly Cloudy BKN100 17 3 23.3 17.1 39% 75.49 0.0
09 18:35 N 30 G 46 16.09 Mostly Cloudy BKN090 BKN120 19 4 37% 75.46 0.0
09 18:15 NW 26 G 37 16.09 Mostly Cloudy BKN100 BKN120 22 3 29% 75.39 0.0
09 17:55 W 26 G 39 16.09 Partly Cloudy SCT100 22 2 27% 75.36 0.0
09 17:35 W 33 G 48 16.09 Partly Cloudy and Breezy SCT090 23 2 25% 75.36 0.0
09 17:15 W 26 G 37 16.09 Mostly Cloudy BKN090 23 3 27% 75.34 0.0
09 16:55 W 15 16.09 Mostly Cloudy BKN090 22 5 33% 75.34 0.0
09 16:35 W 17 G 35 16.09 Overcast OVC090 21 4 33% 75.34 0.0
09 16:15 W 17 G 28 16.09 Mostly Cloudy BKN090 21 5 35% 75.34 0.0
09 15:55 W 22 G 44 16.09 Mostly Cloudy SCT090 BKN100 22 6 36% 75.34 0.0
09 15:35 W 15 16.09 Mostly Cloudy FEW070 BKN080 BKN110 21 7 40% 75.34 0.0
09 15:15 SW 13 G 26 16.09 Mostly Cloudy SCT065 BKN080 BKN110 21 8 43% 75.36 0.0
09 14:55 SW 11 G 30 16.09 Mostly Cloudy SCT065 BKN080 21 7 40% 75.36 0.0
09 14:35 SW 19 G 30 16.09 Fair CLR 23 9 41% 75.36 0.0
09 14:15 W 22 16.09 Partly Cloudy SCT110 21 8 43% 75.36 0.0
09 13:55 W 17 16.09 Mostly Cloudy BKN110 21 7 40% 75.36 0.0
09 13:35 W 19 G 30 16.09 Fair CLR 20 6 40% 75.39 0.0
09 13:15 W 19 G 39 16.09 Fair CLR 21 7 40% 75.36 0.0
09 12:55 W 17 G 33 16.09 Fair CLR 22 9 22 10.7 44% 75.36 0.0
09 12:35 SW 19 G 33 16.09 Fair CLR 21 12 57% 75.34 0.0
09 12:15 W 22 G 31 16.09 Fair CLR 21 12 57% 75.36 0.0
09 11:55 SW 19 G 37 16.09 Fair CLR 20 12 60% 75.34 0.0
09 11:35 SW 20 G 35 16.09 Fair CLR 20 11 56% 75.36 0.0
09 11:15 W 24 G 41 16.09 Fair CLR 20 11 56% 75.36 0.0
09 10:55 SW 20 G 35 16.09 Fair CLR 20 12 60% 75.36 0.0
09 10:35 W 24 G 37 16.09 Fair CLR 18 12 68% 75.36 0.0
09 10:15 W 19 G 35 16.09 Fair CLR 17 14 83% 75.36 0.0
09 09:55 SW 24 G 37 16.09 A Few Clouds FEW110 16 15 94% 75.36 0.0
09 09:35 SW 26 G 35 16.09 A Few Clouds FEW110 15 15 100% 75.36 0.0
09 09:15 SW 26 G 33 16.09 Partly Cloudy FEW010 SCT110 15 15 100% 75.39 0.0
09 08:55 SW 24 16.09 Mostly Cloudy SCT007 SCT012 BKN110 13 13 100% 75.39 0.0
09 08:35 SW 19 16.09 Mostly Cloudy BKN007 BKN012 BKN110 13 13 100% 75.41 0.0
09 08:15 S 19 11.27 Overcast OVC005 12 12 100% 75.39 0.0
09 07:55 S 15 9.66 Fog/Mist OVC003 11 11 100% 75.39 0.0
09 07:35 SW 15 8.05 Fog/Mist OVC003 11 11 100% 75.41 0.0
09 07:15 S 13 6.44 Fog/Mist OVC003 11 11 100% 75.39 0.0
09 06:55 SW 17 4.83 Fog/Mist OVC003 11 11 11.2 9.4 100% 75.39 0.0
09 06:35 SW 17 4.02 Fog/Mist OVC003 11 11 100% 75.39 0.0
09 06:15 SW 15 4.83 Fog/Mist OVC003 10 10 100% 8 75.39 0.0
09 05:55 SW 19 6.44 Fog/Mist OVC003 10 10 100% 8 75.39 0.0
09 05:35 S 13 8.05 Fog/Mist OVC005 10 10 100% 8 75.39 0.0
09 05:15 SW 11 8.05 Fog/Mist OVC005 10 10 100% 9 75.41 0.0
09 04:55 SW 13 8.05 Fog/Mist OVC005 10 10 100% 8 75.41 0.0
09 04:35 SW 15 8.05 Fog/Mist OVC003 10 10 100% 8 75.41 0.0
09 04:15 S 17 6.44 Fog/Mist OVC003 10 10 100% 8 75.41 0.0
09 03:55 SW 13 4.02 Fog/Mist OVC003 10 10 100% 8 75.41 0.0
09 03:35 S 11 4.02 Fog/Mist OVC003 10 10 100% 9 75.41 0.0
09 03:15 S 9 6.44 Fog/Mist BKN003 10 10 100% 9 75.41 0.0
09 02:55 S 9 9.66 Fog/Mist CLR 10 10 100% 9 75.41 0.0
09 02:35 SW 11 9.66 Fog/Mist CLR 10 10 100% 9 75.44 0.0
09 02:15 SW 11 11.27 Fair CLR 10 10 100% 9 75.44 0.0
09 01:55 SW 11 16.09 Fair CLR 10 10 100% 9 75.46 0.0
09 01:35 SW 9 16.09 Fair CLR 10 10 100% 9 75.46 0.0
09 01:15 SW 11 16.09 Fair CLR 11 11 100% 75.49 0.0
09 00:55 SW 11 16.09 Fair CLR 11 11 16.7 10.7 100% 75.49 0.0
09 00:35 SW 11 16.09 A Few Clouds FEW070 11 11 100% 75.49 0.0
09 00:15 SW 11 16.09 Partly Cloudy SCT085 11 11 100% 75.51 0.0
08 23:55 SW 11 16.09 A Few Clouds FEW085 12 12 100% 75.51 0.0
08 23:35 S 9 16.09 Fair CLR 12 12 100% 75.51 0.0
08 23:15 SW 11 16.09 Fair CLR 12 12 100% 75.54 0.0
08 22:55 S 7 16.09 Fair CLR 13 13 100% 75.54 0.0
08 22:35 S 7 16.09 Fair CLR 13 13 100% 75.54 0.0
08 22:15 S 9 16.09 Fair CLR 13 13 100% 75.57 0.0
08 21:55 S 7 16.09 Fair CLR 13 13 100% 75.57 0.0
08 21:35 SW 9 16.09 Fair CLR 14 13 94% 75.57 0.0
08 21:15 SW 13 16.09 Partly Cloudy FEW060 SCT070 14 12 88% 75.57 0.0
08 20:55 SW 15 16.09 Overcast SCT047 SCT060 OVC070 15 12 82% 75.57 0.0
08 20:35 SW 11 16.09 Overcast FEW044 FEW050 OVC070 15 13 88% 75.57 0.0
08 20:15 S 4 16.09 Mostly Cloudy BKN070 BKN080 15 12 82% 75.54 0.0
08 19:55 SW 6 16.09 Partly Cloudy FEW044 FEW060 SCT075 15 11 77% 75.54 0.0
08 19:35 S 7 16.09 Mostly Cloudy SCT035 SCT045 BKN060 16 11 72% 75.51 0.0
08 19:15 S 9 16.09 Partly Cloudy SCT033 16 11 72% 75.54 0.0
08 18:55 SW 7 16.09 Fair CLR 17 11 17.9 15.2 68% 75.51 0.0
08 18:35 Vrbl 7 16.09 A Few Clouds FEW033 17 11 68% 75.54 0.0
08 17:55 SW 7 16.09 Mostly Cloudy SCT035 BKN043 BKN050 17 10 64% 75.54 0.0
08 17:35 W 6 16.09 Mostly Cloudy SCT043 BKN060 BKN070 17 10 64% 75.54 0.0
08 17:15 Vrbl 6 16.09 Partly Cloudy FEW035 FEW043 SCT050 17 10 64% 75.54 0.0
08 16:55 Vrbl 6 16.09 Mostly Cloudy BKN050 18 10 60% 75.54 0.0
08 16:35 Vrbl 6 16.09 Partly Cloudy FEW046 SCT050 17 11 68% 75.57 0.0
08 16:15 Vrbl 4 16.09 Mostly Cloudy SCT046 BKN060 BKN080 17 11 68% 75.57 0.0
08 15:55 Vrbl 6 16.09 Overcast BKN048 OVC060 16 11 72% 75.59 0.0
08 15:35 E 4 16.09 Overcast BKN050 OVC070 15 11 77% 75.62 0.0
08 15:15 S 9 16.09 Overcast BKN060 OVC070 16 11 72% 75.64 0.0
08 14:35 S 11 16.09 Overcast BKN065 OVC070 16 11 72% 75.67 0.0
08 14:15 Vrbl 9 16.09 Overcast OVC065 16 11 72% 75.67 0.0
08 13:55 S 11 16.09 Overcast OVC065 15 11 77% 75.72 0.0
08 13:35 S 11 16.09 Overcast FEW029 OVC075 15 10 72% 75.72 0.0
08 13:15 Vrbl 7 16.09 Mostly Cloudy SCT028 BKN075 BKN090 16 12 77% 75.74 0.0
08 12:35 Vrbl 6 16.09 Mostly Cloudy FEW027 BKN085 16 11 72% 75.79 0.0
08 12:15 SW 11 16.09 Overcast BKN025 BKN033 OVC085 15 13 88% 75.79 0.0
08 11:55 S 11 16.09 Overcast BKN025 BKN029 OVC080 15 13 88% 75.82 0.0
08 11:35 Vrbl 6 16.09 Overcast FEW022 SCT027 OVC080 15 14 94% 75.82 0.0
08 11:15 S 11 16.09 Overcast BKN019 BKN025 OVC080 14 14 100% 75.84 0.0
08 10:55 Vrbl 7 16.09 Overcast SCT019 BKN025 OVC080 14 14 100% 75.87 0.0
08 10:35 Vrbl 7 16.09 Overcast FEW013 OVC080 14 14 100% 75.87 0.0
08 10:15 Vrbl 7 16.09 Overcast SCT011 OVC080 13 13 100% 75.87 0.0
08 09:55 Vrbl 6 16.09 Overcast SCT011 OVC080 12 12 100% 75.87 0.0
08 09:35 Vrbl 11 16.09 Mostly Cloudy FEW011 BKN080 BKN100 12 12 100% 75.87 0.0
08 09:15 Vrbl 11 16.09 Partly Cloudy SCT080 SCT100 12 12 100% 75.87 0.0
08 08:35 Vrbl 4 16.09 Overcast FEW060 OVC090 10 10 100% 75.9 0.0
08 08:15 Vrbl 6 16.09 Overcast SCT060 BKN090 OVC120 9 9 100% 75.9 0.0
08 07:55 SW 9 16.09 Overcast OVC090 8 8 100% 7 75.92 0.0
08 07:35 S 4 16.09 Overcast OVC090 8 8 100% 75.9 0.0
08 07:15 S 2 16.09 Overcast OVC100 7 7 100% 75.9 0.0
08 06:55 Calm 16.09 Overcast FEW075 OVC100 8 8 7.5 4.1 100% 75.87 0.0
08 06:35 SW 4 16.09 Overcast FEW075 OVC100 7 7 100% 75.87 0.0
08 06:15 SW 4 16.09 Mostly Cloudy SCT075 SCT085 BKN110 6 6 100% 75.87 0.0
08 05:55 Calm 16.09 Overcast BKN075 OVC085 5 5 100% 75.84 0.0
08 05:35 Calm 16.09 Overcast BKN075 OVC120 5 5 100% 75.87 0.0
08 05:15 SW 7 16.09 Mostly Cloudy SCT075 BKN110 6 6 100% 5 75.84 0.0
08 04:55 SW 6 16.09 Mostly Cloudy FEW060 SCT100 BKN120 5 5 100% 75.84 0.0
08 04:35 SW 6 14.48 Partly Cloudy FEW080 SCT100 5 5 100% 75.87 0.0
08 04:15 W 4 16.09 Partly Cloudy SCT090 6 6 100% 75.87 0.0
08 03:55 W 6 16.09 Mostly Cloudy SCT060 BKN075 BKN100 7 7 100% 75.87 0.0
08 03:35 SW 7 16.09 Mostly Cloudy SCT060 BKN075 BKN085 7 7 100% 6 75.87 0.0
08 03:15 SW 9 16.09 Partly Cloudy SCT075 7 7 100% 5 75.87 0.0
08 02:55 SW 7 16.09 A Few Clouds FEW075 6 6 100% 5 75.87 0.0
08 02:35 SW 7 16.09 A Few Clouds FEW075 7 7 100% 6 75.87 0.0
08 02:15 SW 7 16.09 A Few Clouds FEW075 6 6 100% 5 75.87 0.0
08 01:55 SW 7 16.09 Fair CLR 6 6 100% 5 75.87 0.0
08 01:35 SW 6 16.09 Fair CLR 6 6 100% 75.9 0.0
08 01:15 SW 6 16.09 Fair CLR 5 5 100% 75.87 0.0
08 00:55 S 7 16.09 Fair CLR 6 6 10.1 4.9 100% 5 75.87 0.0
08 00:35 N 6 12.87 Fair CLR 5 5 100% 75.9 0.0
08 00:15 N 6 16.09 A Few Clouds FEW075 6 6 100% 75.9 0.0
07 23:55 S 4 16.09 Partly Cloudy SCT075 7 7 100% 75.9 0.0
07 23:35 S 6 16.09 A Few Clouds FEW075 7 7 100% 75.87 0.0
07 23:15 S 6 16.09 Fair CLR 7 7 100% 75.87 0.0
07 22:55 Vrbl 6 14.48 Fair CLR 7 7 100% 75.87 0.0
07 22:35 S 6 16.09 Partly Cloudy SCT075 7 7 100% 75.87 0.0
07 22:15 S 9 16.09 Mostly Cloudy BKN080 8 8 100% 7 75.87 0.0
07 21:55 S 7 16.09 Overcast OVC080 8 8 100% 7 75.9 0.0
07 21:35 SE 7 14.48 Overcast OVC080 8 8 100% 7 75.9 0.0
07 21:15 SE 7 16.09 Mostly Cloudy BKN090 7 7 100% 6 75.87 0.0
07 20:55 SE 4 16.09 Fair CLR 7 7 100% 75.84 0.0
07 20:35 S 4 16.09 A Few Clouds FEW080 8 8 100% 75.82 0.0
07 20:15 S 6 16.09 Partly Cloudy FEW070 FEW080 SCT100 9 9 100% 75.82 0.0
07 19:55 Vrbl 2 16.09 Mostly Cloudy FEW070 BKN090 10 10 100% 75.82 0.0 0.05
07 19:35 SW 7 16.09 Mostly Cloudy BKN080 10 10 100% 9 75.84 0.0
07 19:15 W 11 11.27 Light Drizzle SCT043 SCT060 BKN090 9 9 100% 8 75.87 0.0
07 18:55 NW 26 G 43 4.02 Thunderstorm in Vicinity Rain Fog/Mist SCT041 BKN050 9 9 15.1 8.7 100% 6 75.92 0.0 0.1
07 18:35 SW 11 16.09 Overcast FEW029 SCT046 OVC055 13 4 55% 75.82 0.0
07 18:15 S 15 16.09 Overcast BKN050 BKN065 OVC095 13 4 55% 75.82 0.0
07 17:55 SW 20 16.09 Overcast OVC050 14 4 51% 75.84 0.0
07 17:35 SW 19 G 33 16.09 Mostly Cloudy BKN048 BKN060 13 4 55% 75.87 0.0
07 17:15 SW 22 G 30 16.09 Mostly Cloudy BKN050 14 4 51% 75.87 0.0
07 16:55 SW 22 G 41 16.09 Mostly Cloudy BKN050 14 4 51% 75.87 0.0
07 16:35 SW 31 G 44 16.09 A Few Clouds FEW043 FEW050 14 3 48% 75.84 0.0
07 16:15 SW 35 G 54 16.09 Mostly Cloudy and Breezy FEW043 SCT060 BKN070 14 4 51% 75.84 0.0
07 15:55 SW 22 G 41 16.09 Mostly Cloudy SCT060 BKN070 13 4 55% 75.87 0.0
07 15:35 SW 31 G 50 16.09 Overcast OVC065 13 3 51% 75.9 0.0
07 15:15 SW 31 G 57 16.09 Overcast OVC060 13 2 47% 75.92 0.0
07 14:55 SW 28 G 39 16.09 Mostly Cloudy BKN070 BKN090 14 0 39% 75.92 0.0
07 14:35 SW 20 G 33 16.09 Partly Cloudy FEW065 SCT085 14 1 41% 75.95 0.0
07 14:15 W 19 G 41 16.09 Partly Cloudy SCT065 SCT085 14 1 41% 75.97 0.0
07 13:55 W 19 G 35 16.09 A Few Clouds FEW070 FEW080 14 0 39% 75.97 0.0
07 13:35 SW 22 G 31 16.09 Partly Cloudy SCT070 SCT080 15 0 36% 75.97 0.0
07 13:15 W 19 G 30 16.09 Partly Cloudy SCT070 14 0 39% 76 0.0
07 12:55 N 11 16.09 A Few Clouds FEW070 13 0 13.3 4.1 41% 76 0.0
07 12:35 Vrbl 6 8.05 Light Drizzle Haze CLR 13 0 41% 76.05 0.0
07 12:15 Vrbl 4 16.09 Fair CLR 12 -2 38% 76.07 0.0
07 11:55 Vrbl 7 16.09 Fair CLR 12 -2 38% 76.1 0.0
07 11:35 W 9 16.09 Fair CLR 12 -1 41% 76.15 0.0
07 11:15 Vrbl 4 16.09 Fair CLR 11 -2 41% 76.15 0.0
07 10:55 Vrbl 9 16.09 Partly Cloudy FEW070 SCT085 11 -2 41% 76.17 0.0
07 10:35 N 9 16.09 A Few Clouds FEW080 FEW090 11 -1 44% 76.15 0.0
07 10:15 NW 15 16.09 A Few Clouds FEW090 10 -2 43% 8 76.2 0.0
07 09:55 W 20 16.09 A Few Clouds FEW090 10 -2 43% 8 76.17 0.0
Date Time (cdt) Wind (kph) Vis. (km) Weather Sky Cond. Air Dwpt Max. Min. Relative Humidity Wind Chill (°C) Heat Index (°C) altimeter (cm) sea level (mb) 1 hr 3 hr 6 hr
6 hour
Temperature (ºC) Pressure Precipitation (cm)